User: anonymous   Login
Location: Grums
(59.3529°N, 13.1129°E)
Time: 23:46:52
(UTC+01:00)
Language:

AO-92 - Orbit

View from above orbital plane
View from above orbital plane
View from above satellite
View from above satellite

Ground track
Ground track

The orbit data is extracted from the following two-line orbital elements,

1 43137U 18004AC  21335.45233223  .00004295  00000-0  16896-3 0  9992
2 43137  97.3929  47.7156 0008091 353.3338   6.7792 15.26158584216123
Epoch (UTC): 01 December 2021 10:51:21
Eccentricity: 0.0008091
inclination: 97.3929°
perigee height: 482 km
apogee height: 493 km
right ascension of ascending node: 47.7156°
argument of perigee: 353.3338°
revolutions per day: 15.26158584
mean anomaly at epoch: 6.7792°
orbit number at epoch: 21612

The dashed part of the orbit path shows where the satellite is in the earth's shadow,  

DLR